CW3999 Weather Reports


Display with metric or nautical units.
time (UTC)temp
F
wind
direction
speed
MPH
gust
MPH
rain 1hr
in
rain 24hr
in
rain mn
in
humidity
%
barometer
mb
20260903092104 56 134 0.0 0.0 0.00 0.00 0.00 100 1007.6
20260903091602 56 139 0.0 0.0 0.00 0.00 0.00 100 1007.6
20260903091103 56 213 0.0 0.0 0.00 0.00 0.00 100 1007.7
20260903090602 56 213 0.0 0.0 0.00 0.00 0.00 100 1007.7
20260903085602 56 213 1.0 6.0 0.00 0.00 0.00 100 1007.8
20260903085102 56 188 0.0 6.0 0.00 0.00 0.00 100 1007.8
20260903084602 56 186 0.0 0.0 0.00 0.00 0.00 100 1007.8
20260903083604 56 186 1.0 7.0 0.00 0.00 0.00 100 1007.8
20260903083103 56 184 2.0 9.0 0.00 0.00 0.00 100 1007.9
20260903082102 56 185 0.0 0.0 0.00 0.00 0.00 100 1007.8
20260903081602 56 186 0.0 0.0 0.00 0.00 0.00 100 1007.8
20260903081102 56 189 0.0 0.0 0.00 0.00 0.00 100 1007.8
20260903080600 56 134 0.0 0.0 0.00 0.00 0.00 100 1007.8
20260903075604 56 200 0.0 0.0 0.00 0.00 0.00 100 1008.0
20260903075103 56 200 0.0 0.0 0.00 0.00 0.00 100 1007.9
20260903074604 56 200 0.0 0.0 0.00 0.00 0.00 100 1008.0
20260903074103 56 200 0.0 0.0 0.00 0.00 0.00 100 1008.0
20260903073603 56 182 0.0 0.0 0.00 0.00 0.00 100 1007.9
20260903073134 56 182 0.0 0.0 0.00 0.00 0.00 100 1007.9
20260903072603 56 182 0.0 5.0 0.00 0.00 0.00 100 1007.9
20260903072103 56 181 0.0 6.0 0.00 0.00 0.00 100 1007.8
20260903071602 56 180 0.0 6.0 0.00 0.00 0.00 100 1007.8
20260903071103 56 184 0.0 0.0 0.00 0.00 0.00 100 1007.8
20260903070604 56 184 0.0 3.0 0.00 0.00 0.00 100 1007.8
20260903070103 56 184 1.0 5.0 0.00 0.00 0.00 100 1007.6
20260903065603 56 184 2.0 11.0 0.00 0.00 0.00 100 1007.7
20260903065104 56 183 1.0 11.0 0.00 0.00 0.00 100 1007.7
20260903064604 56 195 0.0 0.0 0.00 0.00 0.00 100 1007.8
20260903064102 56 157 0.0 0.0 0.00 0.00 0.00 100 1007.8
20260903063104 56 182 0.0 0.0 0.00 0.00 0.00 100 1007.7
20260903062604 56 179 0.0 0.0 0.00 0.00 0.00 100 1007.7
20260903062103 56 178 0.0 0.0 0.00 0.00 0.00 100 1007.8
20260903061603 56 178 0.0 0.0 0.00 0.00 0.00 100 1007.7
20260903061103 56 186 0.0 0.0 0.00 0.00 0.00 100 1007.8
20260903060604 57 186 0.0 0.0 0.00 0.00 0.00 100 1007.9
20260903060104 57 196 0.0 0.0 0.00 0.00 0.00 100 1008.0
20260903055603 57 179 0.0 0.0 0.00 0.00 0.00 100 1007.9
20260903055103 56 161 0.0 0.0 0.00 0.00 0.00 100 1007.9
20260903054604 56 188 0.0 0.0 0.00 0.00 0.00 100 1007.9
20260903054103 56 188 0.0 0.0 0.00 0.00 0.00 100 1007.9
20260903053603 56 188 0.0 0.0 0.00 0.00 0.00 100 1007.9
20260903053104 57 188 0.0 0.0 0.00 0.00 0.00 100 1007.8
20260903052103 57 188 0.0 0.0 0.00 0.00 0.00 100 1007.9
20260903051601 57 191 0.0 0.0 0.00 0.00 0.00 100 1007.9
20260903050601 57 191 0.0 0.0 0.00 0.00 0.00 100 1007.7
20260903045604 56 192 0.0 0.0 0.00 0.00 0.00 100 1007.7
20260903045106 56 192 0.0 0.0 0.00 0.00 0.00 100 1007.8
20260903044603 56 192 0.0 0.0 0.00 0.00 0.00 100 1007.8
20260903044103 56 192 0.0 0.0 0.00 0.00 0.00 100 1007.7
20260903043603 56 192 0.0 0.0 0.00 0.00 0.00 100 1007.6
20260903043103 56 192 0.0 0.0 0.00 0.00 0.00 100 1007.5
20260903042603 56 192 0.0 0.0 0.00 0.00 0.00 100 1007.4
20260903042104 56 192 0.0 0.0 0.00 0.00 0.00 100 1007.4
20260903041549 56 192 0.0 0.0 0.00 0.00 0.00 100 1007.4
20260903041045 57 192 0.0 0.0 0.00 0.00 0.00 100 1007.3
20260903040030 57 192 0.0 0.0 0.00 0.00 0.00 100 1007.3
20260903035530 57 192 0.0 0.0 0.00 0.00 0.00 100 1007.2
20260903034529 57 192 0.0 0.0 0.00 0.00 0.00 100 1007.0
20260903034029 58 192 0.0 0.0 0.00 0.00 0.00 100 1006.8
20260903033530 58 192 0.0 0.0 0.00 0.00 0.00 100 1006.8
20260903032530 58 192 0.0 0.0 0.00 0.00 0.00 100 1006.7
20260903031531 58 192 0.0 0.0 0.00 0.00 0.00 100 1006.6
20260903031030 59 192 0.0 0.0 0.00 0.00 0.00 100 1006.6
20260903030530 59 192 0.0 0.0 0.00 0.00 0.00 100 1006.5
20260903030029 59 192 0.0 0.0 0.00 0.00 0.00 100 1006.4
20260903024532 60 184 0.0 0.0 0.00 0.00 0.00 100 1006.3
20260903023531 60 188 0.0 0.0 0.00 0.00 0.00 100 1006.2
20260903023030 61 188 0.0 0.0 0.00 0.00 0.00 100 1006.2
20260903022530 61 188 0.0 0.0 0.00 0.00 0.00 100 1006.1
20260903022030 61 188 0.0 0.0 0.00 0.00 0.00 100 1006.0
20260903021529 61 188 0.0 0.0 0.00 0.00 0.00 100 1006.0
20260903021030 61 186 0.0 0.0 0.00 0.00 0.00 100 1006.1
20260903020029 61 187 0.0 0.0 0.00 0.00 0.00 100 1006.0
20260903015529 62 172 0.0 0.0 0.00 0.00 0.00 100 1006.0
20260903015029 62 188 0.0 0.0 0.00 0.00 0.00 100 1005.9
20260903014530 62 182 0.0 0.0 0.00 0.00 0.00 100 1005.9
20260903014031 62 181 0.0 0.0 0.00 0.00 0.00 100 1005.8
20260903013530 62 180 0.0 0.0 0.00 0.00 0.00 100 1005.7
20260903013029 62 188 0.0 0.0 0.00 0.00 0.00 100 1005.7
20260903012531 62 195 0.0 0.0 0.00 0.00 0.00 100 1005.7
20260903012030 62 190 0.0 0.0 0.00 0.00 0.00 100 1005.7
20260903011031 62 185 3.0 9.0 0.00 0.00 0.00 100 1005.6
20260903010530 62 190 4.0 9.0 0.00 0.00 0.00 100 1005.6
20260903010029 62 187 4.0 9.0 0.00 0.00 0.00 100 1005.7
20260903005530 62 187 3.0 7.0 0.00 0.00 0.00 100 1005.6
20260903004529 62 198 3.0 8.0 0.00 0.00 0.00 100 1005.4
20260903004030 62 184 4.0 9.0 0.00 0.00 0.00 100 1005.4
20260903003528 62 187 5.0 9.0 0.00 0.00 0.00 100 1005.3
20260903003028 62 186 4.0 10.0 0.00 0.00 0.00 100 1005.3
20260903002527 62 192 2.0 10.0 0.00 0.00 0.00 100 1005.4
20260903002027 62 190 0.0 9.0 0.00 0.00 0.00 100 1005.4
20260903001020 62 192 3.0 10.0 0.00 0.00 0.00 100 1005.3
20260902235516 62 175 2.0 9.0 0.00 0.00 0.00 100 1005.3
20260902235017 62 180 2.0 9.0 0.00 0.00 0.00 100 1005.3
20260902234517 62 190 1.0 9.0 0.00 0.00 0.00 100 1005.2
20260902233512 61 180 0.0 0.0 0.00 0.00 0.00 100 1005.1
20260902233011 60 181 0.0 0.0 0.00 0.00 0.00 100 1005.1
20260902232513 60 181 0.0 0.0 0.00 0.00 0.00 100 1005.3
20260902232011 60 181 0.0 0.0 0.00 0.00 0.00 100 1005.3
20260902231513 60 181 0.0 5.0 0.00 0.00 0.00 100 1005.1
20260902230512 60 180 2.0 8.0 0.00 0.00 0.00 100 1005.1
20260902230012 60 182 2.0 8.0 0.00 0.00 0.00 100 1005.0
20260902225511 59 180 3.0 9.0 0.00 0.00 0.00 100 1005.0
20260902225011 59 180 3.0 9.0 0.00 0.00 0.00 100 1005.0
20260902224012 59 188 2.0 8.0 0.00 0.00 0.00 100 1004.9
20260902223513 59 184 3.0 7.0 0.00 0.00 0.00 100 1004.9
20260902223009 59 187 3.0 8.0 0.00 0.00 0.00 100 1004.9
20260902222509 59 182 4.0 9.0 0.00 0.00 0.00 100 1004.8
20260902221510 59 182 5.0 15.0 0.00 0.00 0.00 100 1004.6
20260902221010 59 188 4.0 15.0 0.00 0.00 0.00 100 1004.6
20260902220020 59 187 4.0 12.0 0.00 0.00 0.00 100 1004.4
20260902215505 59 170 2.0 13.0 0.00 0.00 0.00 100 1004.4
20260902214004 59 192 3.0 13.0 0.00 0.00 0.00 100 1004.4
20260902213501 59 197 2.0 10.0 0.00 0.00 0.00 100 1004.4
20260902213001 59 204 2.0 10.0 0.00 0.00 0.00 100 1004.3
20260902212501 59 179 0.0 9.0 0.00 0.00 0.00 100 1004.3
20260902212001 59 194 1.0 4.0 0.00 0.00 0.00 100 1004.3
20260902210945 59 173 2.0 10.0 0.00 0.00 0.00 100 1004.3
20260902210445 59 147 3.0 11.0 0.00 0.00 0.00 100 1004.3
20260902205940 58 192 2.0 11.0 0.00 0.00 0.00 100 1004.4
20260902205439 59 154 1.0 6.0 0.00 0.00 0.00 100 1004.3
20260902204440 58 199 3.0 9.0 0.00 0.00 0.00 100 1004.2
20260902203941 58 167 4.0 14.0 0.00 0.00 0.00 100 1004.2
20260902203441 59 175 3.0 14.0 0.00 0.00 0.00 100 1004.0
20260902202937 59 171 1.0 10.0 0.00 0.00 0.00 100 1004.1
20260902201937 59 156 2.0 6.0 0.00 0.00 0.00 100 1004.0
20260902200937 58 150 2.0 12.0 0.00 0.00 0.00 100 1003.9
20260902200437 58 133 2.0 7.0 0.00 0.00 0.00 100 1003.9
20260902195937 58 146 1.0 7.0 0.00 0.00 0.00 100 1003.9
20260902195432 58 167 0.0 6.0 0.00 0.00 0.00 100 1003.9
20260902194932 58 138 0.0 0.0 0.00 0.00 0.00 100 1003.9
20260902194431 58 138 1.0 7.0 0.00 0.00 0.00 100 1003.9
20260902193932 58 139 2.0 7.0 0.00 0.00 0.00 100 1003.9
20260902192930 58 149 0.0 0.0 0.00 0.00 0.00 100 1004.1
20260902192430 58 157 0.0 0.0 0.00 0.00 0.00 100 1004.3
20260902191430 58 128 0.0 0.0 0.00 0.00 0.00 100 1004.3
20260902190931 58 135 0.0 0.0 0.00 0.00 0.00 100 1004.5
20260902190430 58 144 0.0 0.0 0.00 0.00 0.00 100 1004.6
20260902185929 58 116 0.0 0.0 0.00 0.00 0.00 100 1004.7
20260902184930 58 135 0.0 0.0 0.00 0.00 0.00 100 1004.8
20260902184430 58 134 0.0 0.0 0.00 0.00 0.00 100 1004.7
20260902183931 58 134 0.0 0.0 0.00 0.00 0.00 100 1004.7
20260902182417 58 178 0.0 0.0 0.00 0.00 0.00 100 1004.6
20260902181916 58 178 0.0 0.0 0.00 0.00 0.00 100 1004.7
20260902181413 58 178 0.0 3.0 0.00 0.00 0.00 100 1004.8
20260902180912 58 178 0.0 5.0 0.00 0.00 0.00 100 1005.0
20260902180411 58 178 0.0 6.0 0.00 0.00 0.00 100 1005.1
20260902175911 58 177 2.0 10.0 0.00 0.00 0.00 100 1005.2
20260902174912 58 189 4.0 11.0 0.00 0.00 0.00 100 1005.2
20260902174409 58 175 3.0 11.0 0.00 0.00 0.00 100 1005.3
20260902173910 59 195 1.0 11.0 0.00 0.00 0.00 100 1005.3
20260902173410 59 177 0.0 0.0 0.00 0.00 0.00 100 1005.3
20260902172404 60 192 0.0 0.0 0.00 0.00 0.00 100 1005.3
20260902171903 60 192 0.0 0.0 0.00 0.00 0.00 100 1005.2
20260902171403 60 192 0.0 0.0 0.00 0.00 0.00 100 1005.2
20260902170403 60 192 0.0 0.0 0.00 0.00 0.00 100 1005.0
20260902165900 60 191 0.0 0.0 0.00 0.00 0.00 100 1005.0
20260902165402 61 191 0.0 0.0 0.00 0.00 0.00 100 1005.0
20260902164901 61 191 0.0 0.0 0.00 0.00 0.00 100 1005.0
20260902164404 61 188 0.0 0.0 0.00 0.00 0.00 100 1005.0
20260902163903 62 183 0.0 0.0 0.00 0.00 0.00 100 1004.9
20260902163403 62 157 0.0 0.0 0.00 0.00 0.00 100 1004.9
20260902162902 62 157 0.0 0.0 0.00 0.00 0.00 100 1004.9
20260902161903 62 157 0.0 0.0 0.00 0.00 0.00 100 1004.9
20260902161402 62 157 0.0 0.0 0.00 0.00 0.00 100 1004.8
20260902160902 62 157 0.0 0.0 0.00 0.00 0.00 100 1004.8
20260902160402 62 157 0.0 0.0 0.00 0.00 0.00 100 1004.8
20260902155903 62 157 0.0 0.0 0.00 0.00 0.00 100 1004.8
20260902155404 61 157 0.0 0.0 0.00 0.00 0.00 100 1004.9
20260902154903 61 157 0.0 0.0 0.00 0.00 0.00 100 1004.8
20260902153902 61 157 0.0 0.0 0.00 0.00 0.00 100 1005.0
20260902153402 61 157 0.0 0.0 0.00 0.00 0.00 100 1005.0
20260902152903 61 157 0.0 0.0 0.00 0.00 0.00 100 1005.2
20260902152402 61 157 0.0 0.0 0.00 0.00 0.00 100 1005.2
20260902151901 61 157 0.0 0.0 0.00 0.00 0.00 100 1005.4
20260902151403 61 157 0.0 0.0 0.00 0.00 0.00 100 1005.5
20260902150903 61 157 0.0 0.0 0.00 0.00 0.00 100 1005.4
20260902150403 61 157 0.0 0.0 0.00 0.00 0.00 100 1005.5
20260902145902 61 157 0.0 0.0 0.00 0.00 0.00 100 1005.5
20260902144903 61 146 0.0 0.0 0.00 0.00 0.00 100 1005.5
20260902144402 61 148 0.0 0.0 0.00 0.00 0.00 100 1005.5
20260902143901 61 148 0.0 0.0 0.00 0.00 0.00 100 1005.5
20260902143404 61 148 0.0 0.0 0.00 0.00 0.00 100 1005.5
20260902142903 60 148 0.0 0.0 0.00 0.00 0.00 100 1005.6
20260902142404 60 148 0.0 0.0 0.00 0.00 0.00 100 1005.7
20260902141902 60 146 0.0 0.0 0.00 0.00 0.00 100 1005.7
20260902141402 60 146 0.0 0.0 0.00 0.00 0.00 100 1005.7
20260902135902 60 129 0.0 0.0 0.00 0.00 0.00 100 1005.8
20260902135400 60 149 0.0 0.0 0.00 0.00 0.00 100 1005.9
20260902134904 60 149 0.0 0.0 0.00 0.00 0.00 100 1005.9
20260902134404 60 149 0.0 0.0 0.00 0.00 0.00 100 1006.0
20260902133903 60 148 0.0 0.0 0.00 0.00 0.00 100 1006.0
20260902133403 60 181 0.0 0.0 0.00 0.00 0.00 100 1006.1
20260902132903 60 181 0.0 0.0 0.00 0.00 0.00 100 1006.2
20260902132403 60 181 0.0 0.0 0.00 0.00 0.00 100 1006.2
20260902131903 60 181 0.0 0.0 0.00 0.00 0.00 100 1006.3
20260902131404 60 181 0.0 0.0 0.00 0.00 0.00 100 1006.3
20260902130902 60 181 0.0 0.0 0.00 0.00 0.00 100 1006.4
20260902125903 60 181 0.0 0.0 0.00 0.00 0.00 100 1006.7
20260902125401 60 181 0.0 0.0 0.00 0.00 0.00 100 1006.8
20260902124902 60 181 0.0 0.0 0.00 0.00 0.00 100 1006.8
20260902124403 60 181 0.0 0.0 0.00 0.00 0.00 100 1006.9
20260902123903 60 181 0.0 0.0 0.00 0.00 0.00 100 1007.0
20260902123403 60 181 0.0 0.0 0.00 0.00 0.00 100 1007.0
20260902122901 60 181 0.0 0.0 0.00 0.00 0.00 100 1007.0
20260902121901 60 182 0.0 0.0 0.00 0.00 0.00 100 1007.3
20260902121341 60 182 0.0 0.0 0.00 0.00 0.00 100 1007.3
20260902120841 60 182 0.0 0.0 0.00 0.00 0.00 100 1007.4
20260902120332 60 183 0.0 0.0 0.00 0.00 0.00 100 1007.5
20260902115829 60 183 0.0 0.0 0.00 0.00 0.00 100 1007.5
20260902115331 60 183 0.0 0.0 0.00 0.00 0.00 100 1007.5
20260902114808 60 146 0.0 0.0 0.00 0.00 0.00 100 1007.7
20260902114310 60 148 0.0 0.0 0.00 0.00 0.00 100 1007.9
20260902113309 60 175 0.0 0.0 0.00 0.00 0.00 100 1007.9
20260902112804 60 175 0.0 0.0 0.00 0.00 0.00 100 1007.8
20260902111802 60 175 0.0 0.0 0.00 0.00 0.00 100 1007.9
20260902111303 60 175 0.0 0.0 0.00 0.00 0.00 100 1007.9
20260902110802 60 175 0.0 0.0 0.00 0.00 0.00 100 1007.9
20260902110303 60 175 0.0 0.0 0.00 0.00 0.00 100 1008.0
20260902105802 60 175 0.0 0.0 0.00 0.00 0.00 100 1008.1
20260902105301 60 175 0.0 0.0 0.00 0.00 0.00 100 1008.1
20260902104802 60 175 0.0 0.0 0.00 0.00 0.00 100 1008.1
20260902103801 60 175 0.0 0.0 0.00 0.00 0.00 100 1008.2
20260902102749 59 175 0.0 0.0 0.00 0.00 0.00 100 1008.2
20260902102237 59 175 0.0 0.0 0.00 0.00 0.00 100 1008.2
20260902101732 59 175 0.0 0.0 0.00 0.00 0.00 100 1008.2
20260902101230 59 175 0.0 0.0 0.00 0.00 0.00 100 1008.2
20260902100729 59 175 0.0 0.0 0.00 0.00 0.00 100 1008.1
20260902100230 59 175 0.0 0.0 0.00 0.00 0.00 100 1008.2
20260902095731 59 175 0.0 0.0 0.00 0.00 0.00 100 1008.3
20260902094731 58 175 0.0 0.0 0.00 0.00 0.00 100 1008.3
20260902094232 58 175 0.0 0.0 0.00 0.00 0.00 100 1008.3
20260902093731 58 175 0.0 0.0 0.00 0.00 0.00 100 1008.4
20260902093231 58 175 0.0 0.0 0.00 0.00 0.00 100 1008.4
20260902092730 58 175 0.0 0.0 0.00 0.00 0.00 100 1008.5